Location: Plainartige
(45.6866°N, 1.7993°E)
Time: 17:23:58
(UTC+00:00)

Tiros 1 - Pass Details

Date: 30 May 2022
Orbit: 629 x 663 km, 48.4° (Epoch: 05 July)

Event Time Altitude Azimuth Distance (km) Brightness Sun altitude
Exits shadow 23:39:54 66° 215° (SW) 689 7.0 -22.4°
Maximum altitude 23:40:28 77° 157° (SSE) 651 6.9 -22.4°
Drops below altitude 10° 23:45:06 10° 72° (ENE) 2,018 9.9 -22.4°
Sets 23:47:26 0° 71° (ENE) 2,933 10.8 -22.4°
